Tracking 18980 objects as of 20-Feb-2018
HD Live streaming from Space Station
objects crossing your sky now

NIMBUS 2 DEB

Track NIMBUS 2 DEB now!
10-day predictions


NORAD ID: 28978
Int'l Code: 1966-040AP
Perigee: 1,069.3 km
Apogee: 1,144.5 km
Inclination: 100.4 °
Period: 107.3 minutes
Semi major axis: 7477 km
RCS: 0.0207 m2 (small)
Launch date: May 15, 1966
Source: United States (US)
Launch site: AIR FORCE WESTERN TEST RANGE (AFWTR)

Note: This is SATELLITE DEBRIS
aabbcc
Your satellite tracking list
Your tracking list is empty




NASA's NSSDC Master Catalog

Two Line Element Set (TLE):
1 28978U 66040AP  18050.89182557 +.00000616 +00000-0 +11621-2 0  9995
2 28978 100.4125 188.6124 0050276 132.7823 357.0077 13.42559591520971
Source of the keplerian elements: AFSPC